Wind_Speed
61 62 65 71 77 80 84 85 85 86 87 86 86 86 87 86 87 88 90 90 89 88 89 88 88 88 88
64 66 67 68 68 68 68 70 73 78 82 87 88 88 88 88 88 89 89 89 89 89 89 90 90 89 88
69 70 71 72 73 74 75 76 76 77 77 77 78 79 80 81 83 85 87 89 92 92 92 92 92 91 92
73 74 76 78 78 79 80 81 82 83 84 84 84 86 87 86 87 88 89 89 90 90 90 90 90 89 89
80 81 82 84 85 86 88 90 89 89 92 93 92 94 95 96 96 96 97 98 98 98 98 98 97 96 96
87 88 90 92 91 92 94 96 97 96 96 104 102 105 106 107 106 106 107 108 108 108 109 109 107 106 105
96 97 97 97 98 98 98 98 98 100 96 97 104 100 105 109 110 111 113 115 115 117 120 118 118 116 114
103 103 104 105 102 100 100 98 99 101 101 97 101 104 107 109 113 115 118 121 124 126 127 127 126 125 123
108 109 109 108 106 103 103 103 104 104 105 106 103 103 106 110 115 120 124 127 132 136 137 135 135 131 127
112 109 109 110 111 110 109 110 112 110 112 110 110 110 107 109 115 120 125 132 136 139 143 142 141 138 134
114 113 115 116 117 118 117 117 117 116 115 114 116 116 117 113 112 120 126 129 133 134 137 140 140 140 135
121 122 123 123 123 123 125 124 120 119 121 122 120 122 116 113 110 109 115 120 125 123 124 125 127 128 129
129 128 128 129 127 127 126 125 127 128 124 122 118 114 108 106 104 101 106 104 111 115 115 114 114 113 112
132 131 132 134 134 133 134 133 127 129 126 119 115 110 104 104 102 99 99 95 98 101 104 107 107 103 100
139 142 142 143 142 142 139 135 129 126 122 118 114 109 103 101 99 98 92 90 93 91 92 92 92 87 85
149 150 148 142 143 141 128 126 121 116 106 103 103 101 98 95 97 90 88 89 85 82 78 74 79 77 73
146 140 139 140 133 124 119 113 105 100 95 95 94 97 94 88 88 88 83 82 77 74 68 64 67 65 59
Wind_Direction
279 280 279 278 277 276 275 275 275 275 274 274 275 276 276 276 276 276 275 275 275 276 276 277 278 279 280
280 279 279 279 280 280 280 279 278 277 275 273 273 273 273 274 275 276 276 276 276 276 277 277 278 278 277
281 281 280 280 280 279 278 278 278 278 277 277 278 278 278 277 278 278 277 277 277 277 276 276 277 278 277
284 283 282 281 280 279 279 278 278 278 277 276 276 276 275 275 276 276 276 276 276 277 277 276 275 275 274
284 283 282 282 281 281 280 279 278 278 278 277 277 276 275 275 275 274 275 274 274 274 273 274 274 273 273
284 283 282 282 282 282 281 279 279 279 279 280 278 278 277 277 276 275 274 273 272 271 270 270 269 269 268
288 287 286 285 284 282 282 282 281 281 279 280 282 281 280 279 278 276 275 273 272 270 269 266 265 265 265
289 289 288 288 286 286 285 284 283 283 282 281 282 283 283 282 281 280 278 275 273 271 269 268 266 265 264
290 289 289 288 287 287 287 287 287 286 285 284 282 280 281 283 282 281 280 278 275 273 272 271 271 270 268
289 289 290 290 289 289 289 289 288 287 286 286 285 282 279 282 286 285 283 279 276 275 274 274 275 274 272
289 290 290 290 290 289 290 289 289 290 289 288 288 287 286 282 280 279 279 279 278 277 277 276 275 274 273
289 289 289 290 290 290 291 293 291 292 292 291 290 288 285 281 280 277 276 276 275 274 276 276 275 274 275
288 289 290 291 291 292 292 294 295 295 293 290 288 285 283 282 278 277 274 274 274 273 274 274 274 275 276
290 292 293 295 294 295 295 296 296 295 296 293 291 289 286 282 281 278 277 276 273 273 272 273 274 276 277
293 294 294 294 294 295 295 295 295 295 294 293 291 289 286 284 282 281 279 279 275 272 274 274 276 277 277
292 291 293 293 293 293 294 294 293 292 291 288 287 286 284 285 283 282 282 281 278 277 276 275 275 274 273
291 292 291 291 293 293 291 290 289 287 285 284 283 281 279 281 282 283 280 279 281 282 280 277 273 273 271
Height
10604 10600 10597 10595 10594 10593 10591 10588 10587 10586 10585 10583 10581 10578 10576 10574 10572 10569 10566 10564 10563 10562 10560 10558 10557 10556 10554
10589 10586 10582 10579 10577 10575 10573 10568 10566 10565 10564 10561 10557 10556 10553 10550 10548 10545 10543 10542 10540 10538 10537 10535 10532 10532 10532
10571 10569 10565 10562 10559 10556 10553 10551 10547 10544 10542 10540 10537 10533 10531 10529 10526 10521 10518 10516 10514 10513 10513 10513 10511 10509 10508
10552 10548 10544 10540 10537 10534 10533 10529 10527 10524 10519 10517 10513 10508 10505 10506 10504 10499 10495 10493 10491 10489 10487 10485 10485 10484 10483
10528 10524 10520 10516 10514 10512 10507 10503 10503 10502 10494 10488 10489 10484 10478 10475 10476 10472 10470 10468 10466 10464 10461 10461 10460 10457 10455
10505 10500 10495 10490 10487 10485 10482 10478 10474 10475 10475 10453 10461 10453 10450 10443 10444 10442 10439 10435 10434 10430 10426 10426 10427 10428 10425
10478 10475 10468 10465 10461 10456 10453 10452 10448 10439 10445 10441 10420 10427 10415 10407 10406 10407 10402 10400 10396 10393 10388 10388 10388 10390 10392
10450 10444 10440 10434 10431 10428 10422 10423 10418 10411 10408 10415 10405 10396 10387 10378 10369 10364 10361 10357 10353 10350 10349 10344 10349 10355 10359
10419 10413 10408 10402 10398 10397 10394 10393 10387 10380 10373 10371 10376 10372 10362 10348 10336 10326 10319 10314 10306 10301 10299 10302 10304 10312 10322
10387 10383 10377 10370 10364 10361 10360 10357 10348 10348 10337 10334 10328 10323 10332 10326 10308 10291 10282 10270 10266 10258 10252 10255 10260 10267 10274
10354 10350 10344 10338 10332 10326 10321 10316 10311 10304 10297 10294 10289 10279 10273 10282 10288 10268 10248 10231 10217 10212 10210 10211 10212 10214 10227
10321 10316 10310 10303 10297 10290 10282 10276 10271 10265 10254 10245 10243 10235 10232 10231 10233 10239 10228 10194 10175 10178 10173 10166 10165 10167 10172
10288 10283 10275 10268 10259 10251 10241 10236 10230 10221 10210 10201 10197 10192 10185 10186 10191 10189 10178 10175 10152 10143 10139 10136 10131 10136 10140
10248 10240 10231 10224 10215 10207 10201 10192 10189 10178 10166 10155 10148 10146 10146 10143 10143 10144 10133 10137 10127 10116 10112 10106 10106 10111 10113
10205 10198 10191 10184 10176 10170 10162 10156 10152 10142 10133 10118 10111 10109 10108 10105 10104 10098 10102 10097 10091 10091 10089 10086 10083 10083 10086
10164 10158 10153 10146 10140 10132 10127 10120 10116 10108 10100 10089 10079 10072 10072 10075 10061 10070 10067 10062 10062 10060 10065 10068 10057 10058 10066
10126 10119 10111 10103 10100 10095 10089 10087 10081 10074 10067 10058 10047 10040 10041 10051 10037 10030 10038 10030 10035 10037 10037 10039 10035 10036 10046